Regional Weather Roundup
Issued by NWS Sterling, VA

Home | Current Version | Previous Version | Text Only | Print | Product List | Glossary Off
Versions: 1 2 3 4 5 6 7 8 9 10 11 12 13 14 15 16 17 18 19 20 21 22 23 24 25 26 27 28 29 30 31 32 33 34 35 36 37 38 39 40 41 42 43 44 45 46 47 48 49 50

000
ASUS41 KLWX 301110
RWRLWX

REGIONAL WEATHER ROUNDUP
NATIONAL WEATHER SERVICE BALTIMORE MD/WASHINGTON DC
700 AM EDT WED JUL 30 2014

Note: "FAIR" indicates few or no clouds below 12,000 feet
with no significant weather and/or obstructions to visibility.
 TC=TEMPERATURE CELSIUS

 * =Non NWS site. Station does not report precipitation (e.g. rain,
    snow, etc.), thunder, or fog.

DCZ001-MDZ009-015-VAZ040>042-051-053>054-301200-
WASHINGTON METRO
  /KDAA//-FT BELVOIR

CITY           SKY/WX    TMP DP  RH WIND       PRES   REMARKS
WASHINGTON NAT PTCLDY    60  51  72 CALM      30.07R
DULLES         PTCLDY    50  48  93 CALM      30.07R
ANDREWS AFB    CLEAR     57  51  81 NW1       30.06R
QUANTICO       CLEAR     57  52  83 NW6       30.08R
COLLEGE PARK*  CLEAR     54  54 100 CALM      30.06R
LEESBURG*      CLEAR     54  54 100 W3        30.08R
MANASSAS*      CLEAR     52  52 100 CALM      30.08R
GAITHERSBURG*  CLEAR     52  48  87 CALM      30.11R

$$

MDZ006>007-011-014-301200-
BALTIMORE METRO

CITY           SKY/WX    TMP DP  RH WIND       PRES   REMARKS
BWI AIRPORT    PTCLDY    56  51  84 W3        30.05R
MD SCIENCE CTR   N/A     63  51  65 MISG      30.06R
MARTIN STATE   CLEAR     57  55  94 CALM      30.07R
ANNAPOLIS      CLEAR     60  51  72 W5        30.06R
FORT MEADE*    CLEAR     50  50 100 CALM      30.08R

$$

MDZ012-015-019>023-301200-
MARYLAND EASTERN SHORE

CITY           SKY/WX    TMP DP  RH WIND       PRES   REMARKS
OCEAN CITY     SUNNY     59  55  87 NW5       30.03R
SALISBURY      NOT AVBL
BAY BRIDGE AP*   N/A     63  52  67 NW8       30.05R
CAMBRIDGE*     CLEAR     59  55  88 CALM      30.05R
EASTON*        CLEAR     59  59 100 CALM      30.08R

$$

MDZ017>025-301200-
SOUTHERN MARYLAND

CITY           SKY/WX    TMP DP  RH WIND       PRES   REMARKS
PATUXENT RIVER PTCLDY    58  53  84 W6        30.05R
ST INIGOES     CLEAR     57  52  83 CALM      30.05R
LEONARDTOWN*   CLEAR     54  50  87 W3        30.07S

$$

MDZ003>005-301200-
NORTH CENTRAL MARYLAND

CITY           SKY/WX    TMP DP  RH WIND       PRES   REMARKS
FREDERICK*     CLEAR     54  54 100 CALM      30.09R
HAGERSTOWN APT CLEAR     53  50  89 S6        30.07R
WESTMINSTER*   CLEAR     55  52  88 CALM      30.07R

$$

MDZ501>502-301200-
WESTERN MARYLAND

CITY           SKY/WX    TMP DP  RH WIND       PRES   REMARKS
OAKLAND*       CLEAR     48 N/A N/A SW6       30.11R
CUMBERLAND*    CLOUDY    52  50  93 CALM      30.13R VSB<1/4

$$

VAZ025>031-301200-
SHENANDOAH VALLEY

CITY           SKY/WX    TMP DP  RH WIND       PRES   REMARKS
WINCHESTER*    CLEAR     54  50  87 SW6       30.08R
STAUNTON*      CLEAR     50  48  93 CALM      30.13R FOG

$$

WVZ021-048>050-054>055-301200-
EASTERN WEST VIRGINIA PANHANDLE

CITY           SKY/WX    TMP DP  RH WIND       PRES   REMARKS
MARTINSBURG    CLEAR     51  47  86 CALM      30.08R FOG
PETERSBURG*    CLEAR     46  43  89 CALM      30.11S FOG

$$

VAZ036>039-050-301200-
CENTRAL FOOTHILLS

CITY           SKY/WX    TMP DP  RH WIND       PRES   REMARKS
CHARLOTTESVILL PTCLDY    55  53  93 CALM      30.08R
ORANGE*        PTCLDY    54  52  94 CALM      30.09S

$$

VAZ055>057-301200-
NORTH AND CENTRAL PIEDMONT

CITY           SKY/WX    TMP DP  RH WIND       PRES   REMARKS
FREDERICKSBRG* CLEAR     56  54  94 CALM      30.06S
STAFFORD*      CLEAR     50  50 100 CALM      30.11R

$$

NCZ024-NYZ072-PAZ021-071-VAZ022-071-301200-
OTHER REGIONAL OBSERVATIONS

CITY           SKY/WX    TMP DP  RH WIND       PRES   REMARKS
NEW YORK CITY  SUNNY     63  53  70 CALM      30.04R
PHILADELPHIA   PTSUNNY   63  52  67 CALM      30.03R
PITTSBURGH     MOCLDY    55  51  86 CALM      30.04S
ROANOKE        PTCLDY    55  52  89 CALM      30.13R
RICHMOND       PTCLDY    63  52  67 N5        30.07R
RALEIGH        PTCLDY    64  59  83 NE6       30.06R

$$

ANZ530>537-301200-
MARINE OBSERVATIONS

STATION/POSITION TIME  TEMP    WIND        PRES
                       AIR SEA DIR/SP/G
                 (UTC) (F)     (DEG/KT/KT) (MB)
THOMAS PT LIGHT  1100   63 77  300/ 11/ 12 1018.1R
BALT KEY BRIDGE  1100          270/  6/  8 1017.4R
COVE POINT       1100   64     320/  7/  9 1017.4R
LEWISETTA        1100   63 76  290/  5/  6 1017.4R
SOLOMONS ISLAND  1100      79                N/A
PINEY POINT      1100          360/  8/  9   N/A

$$



USA.gov is the U.S. government's official web portal to all federal, state and local government web resources and services.